Location: Marcé
(47.5801°N, 0.3280°W)
Time: 18:19:06
(UTC+01:00)

Tiros 1 despin weight - Pass Details

Date: 04 December 2021
Orbit: 592 x 641 km, 48.2° (Epoch: 21 January)

Event Time Altitude Azimuth Distance (km) Brightness Sun altitude
Rises 19:44:13 0° 284° (WNW) 2,826 ? -25.0°
Reaches altitude 10° 19:46:44 10° 273° (W) 1,924 ? -25.4°
Maximum altitude 19:50:28 28° 215° (SW) 1,135 ? -26.0°
Enters shadow 19:51:38 24° 188° (S) 1,235 ? -26.2°
